• Processing (Info)

  • MPEC 2019-C113: 2019 CZ3

    The following Minor Planet Electronic Circular may be linked-to from your own Web pages, but must not otherwise be redistributed electronically.

    A form allowing access to any MPEC is at the bottom of this page.


    Read MPEC 2019-C112 Read MPEC 2019-C114


    M.P.E.C. 2019-C113                               Issued 2019 Feb. 11, 12:31 UT
    
         The Minor Planet Electronic Circulars contain information on unusual
             minor planets and routine data on comets.  They are published
        on behalf of Division F of the International Astronomical Union by the
              Minor Planet Center, Smithsonian Astrophysical Observatory,
                              Cambridge, MA 02138, U.S.A.
    
                 Prepared using the Tamkin Foundation Computer Network
    
                                  MPC@CFA.HARVARD.EDU
                URL https://www.minorplanetcenter.net/    ISSN 1523-6714
    
                                       2019 CZ3
    
    Observations:
         K19C03Z  C2019 01 25.25243001 57 12.231+21 49 24.41         20.6 GVEC113F51
         K19C03Z  C2019 01 25.26547101 57 25.151+21 49 38.08         20.7 GVEC113F51
         K19C03Z  C2019 01 25.27847701 57 38.057+21 49 51.37         21.2 GVEC113F51
         K19C03Z  C2019 01 25.29152301 57 51.061+21 50 04.21         21.7 GVEC113F51
         K19C03Z* C2019 02 08.16486 05 19 50.41 +18 07 03.8          21.0 GVEC113G96
         K19C03Z  C2019 02 08.17046 05 19 53.56 +18 06 53.4          20.5 GVEC113G96
         K19C03Z  C2019 02 08.17604 05 19 56.67 +18 06 42.1          20.4 GVEC113G96
         K19C03Z  C2019 02 08.18163 05 19 59.84 +18 06 31.4          20.7 GVEC113G96
         K19C03Z  C2019 02 08.30555305 21 10.02 +18 02 30.1          20.9 GVEC113H01
         K19C03Z  C2019 02 08.31029305 21 12.75 +18 02 20.8          20.6 GVEC113H01
         K19C03Z  C2019 02 08.32406205 21 20.66 +18 01 53.6          21.4 GVEC113H01
         K19C03Z  C2019 02 08.32792305 21 22.88 +18 01 45.9          21.5 GVEC113H01
         K19C03Z  C2019 02 08.34972 05 21 35.54 +18 01 06.0          21.3 GVEC113G96
         K19C03Z  C2019 02 08.35047 05 21 35.88 +18 01 04.5          20.9 GVEC113G96
         K19C03Z  C2019 02 08.35123 05 21 36.39 +18 01 03.6                VEC113G96
         K19C03Z  C2019 02 08.35198 05 21 36.79 +18 01 02.2                VEC113G96
         K19C03Z  C2019 02 08.35337 05 21 37.57 +18 00 58.0          20.3 GVEC113G96
         K19C03Z KC2019 02 08.77069205 25 43.85 +17 48 05.8          21.0 GVEC113L01
         K19C03Z pC2019 02 08.77155405 25 44.28 +17 48 03.3          21.3 GVEC113L01
         K19C03Z IC2019 02 08.78109705 25 49.52 +17 47 46.5          21.3 GVEC113L01
         K19C03Z KC2019 02 08.78367405 25 50.88 +17 47 41.6          21.1 GVEC113L01
         K19C03Z KC2019 02 08.78712105 25 52.75 +17 47 35.7          21.2 GVEC113L01
         K19C03Z  C2019 02 09.12354 05 29 02.41 +17 37 34.6          20.2 GVEC113I52
         K19C03Z  C2019 02 09.12603 05 29 03.72 +17 37 29.9          20.8 GVEC113I52
         K19C03Z  C2019 02 09.12853 05 29 05.05 +17 37 25.6          20.7 GVEC113I52
         K19C03Z KC2019 02 10.13715405 38 06.09 +17 06 58.2          21.0 VuEC113H21
         K19C03Z KC2019 02 10.14553105 38 10.23 +17 06 43.4          21.0 VuEC113H21
         K19C03Z KC2019 02 10.15550105 38 15.21 +17 06 25.2          20.7 VuEC113H21
         K19C03Z  C2019 02 11.08859 05 46 08.91 +16 39 18.3          20.6 GVEC113V06
         K19C03Z  C2019 02 11.08994 05 46 09.53 +16 39 16.0          20.7 GVEC113V06
         K19C03Z  C2019 02 11.09129 05 46 10.17 +16 39 13.8          20.7 GVEC113V06
         K19C03Z  C2019 02 11.09264 05 46 10.79 +16 39 11.5          20.7 GVEC113V06
    
    Observer details:
    F51 Pan-STARRS 1, Haleakala.  Observers J. Bulger, K. Chambers, T. Lowe,
        E. Magnier, A. Schultz, M. Willman.  Measurers S. Chastel, M. Huber,
        Y. Ramanjooloo, R. Wainscoat, R. Weryk.  1.8-m Ritchey-Chretien + CCD.
    G96 Mt. Lemmon Survey.  Observer A. R. Gibbs.  Measurers B. M. Africano,
        E. J. Christensen, G. A. Farneth, D. C. Fuls, A. R. Gibbs, A. D. Grauer,
        H. Groeller, R. A. Kowalski, S. M. Larson, G. J. Leonard, T. A. Pruyne,
        R. L. Seaman, F. C. Shelly.  1.5-m reflector + 10K CCD.
    H01 Magdalena Ridge Observatory, Socorro.  Observers W. H. Ryan, E. V. Ryan.
        Measurer W. H. Ryan.  2.4-m f/8.9 Ritchey-Chretien + CCD.
    H21 Astronomical Research Observatory, Westfield.  Observer R. Holmes.
        Measurers S. Foglia, L. Buzzi, T. Linder, R. Holmes.  0.61-m f/4.5
        astrograph + CCD.
    I52 Steward Observatory, Mt. Lemmon Station.  Observer D. C. Fuls.  Measurers
        B. M. Africano, E. J. Christensen, G. A. Farneth, D. C. Fuls, A. R. Gibbs,
        A. D. Grauer, H. Groeller, R. A. Kowalski, S. M. Larson, G. J. Leonard,
        T. A. Pruyne, R. L. Seaman, F. C. Shelly.  1.0-m reflector + CCD.
    L01 Visnjan Observatory, Tican.  Observer K. Korlevic.  1.0-m f/2.9 reflector
        + CCD.
    V06 Catalina Sky Survey-Kuiper.  Observer E. J. Christensen.  Measurers
        B. M. Africano, E. J. Christensen, G. A. Farneth, D. C. Fuls, A. R. Gibbs,
        A. D. Grauer, H. Groeller, R. A. Kowalski, S. M. Larson, G. J. Leonard,
        T. A. Pruyne, R. L. Seaman, F. C. Shelly.  1.55-m reflector + CCD.
    
    Orbital elements:
    2019 CZ3                                                 Earth MOID = 0.0144 AU
    Epoch 2019 Apr. 27.0 TT = JDT 2458600.5                 MPC
    M 111.39074              (2000.0)            P               Q
    n   0.76699027     Peri.  103.67343     +0.61640064     -0.78378824
    a   1.1819782      Node   308.01483     +0.68024016     +0.57843269
    e   0.2778184      Incl.    5.51167     +0.39664037     +0.22603454
    P   1.29           H   23.7           G   0.15           U   8
    Residuals in seconds of arc
    190125 F51  0.3+  0.2+    190208 H01  0.0   0.1-    190209 I52  0.1-  0.2+
    190125 F51  0.3+  0.2+    190208 G96  0.9+  0.0     190209 I52  0.2-  0.0
    190125 F51  0.2+  0.2+    190208 G96  0.4-  0.0     190209 I52  0.1-  0.2+
    190125 F51  0.5+  0.0     190208 G96  0.6+  0.6+    190210 H21  0.9+  0.9+
    190208 G96  0.3+  0.1+    190208 G96  0.1+  0.7+    190210 H21  0.6+  1.3+
    190208 G96  0.1+  0.2+    190208 G96  0.2-  0.8-    190210 H21  0.9+  1.2+
    190208 G96  0.4-  0.6-    190208 L01  0.9+  0.0     190211 V06  0.0   0.1-
    190208 G96  0.2-  0.8-    190208 L01  0.3+  0.9-    190211 V06  0.1-  0.1-
    190208 H01  0.0   0.0     190208 L01  0.7+  0.3-    190211 V06  0.0   0.0
    190208 H01  0.2+  0.0     190208 L01  0.0   0.5-    190211 V06  0.1-  0.1-
    190208 H01  0.1+  0.1-    190208 L01  0.1-  0.1-
    
    Ephemeris:
    2019 CZ3                 a,e,i = 1.18, 0.28, 6                   q = 0.8536
    Date    TT    R. A. (2000) Decl.     Delta      r     Elong.  Phase     V
    2019 01 12    23 05 26.0 +12 58 01   0.1182  0.9355    62.9   110.7    23.1
    ...
    2019 01 27    02 27 25.5 +22 13 15   0.08467 0.9958    95.2    80.0    21.1
    ...
    2019 02 04    04 32 30.3 +20 16 02   0.09831 1.0310   114.9    60.1    20.9
    ...
    2019 02 10    05 36 55.0 +17 11 31   0.1206  1.0581   123.5    51.0    21.1
    2019 02 11    05 45 23.3 +16 42 13   0.1250  1.0627   124.5    49.9    21.2
    2019 02 12    05 53 19.8 +16 13 55   0.1295  1.0672   125.4    49.0    21.2
    ...
    2019 02 18    06 32 00.9 +13 47 40   0.1596  1.0946   128.5    45.0    21.6
    ...
    2019 02 26    07 07 53.7 +11 29 47   0.2054  1.1311   129.2    42.7    22.2
    ...
    2019 03 13    07 53 26.4 +08 57 58   0.3044  1.1979   125.9    42.2    23.2
    
    A. U. Tomatic                (C) Copyright 2019 MPC           M.P.E.C. 2019-C113
    

    Read MPEC 2019-C112 Read MPEC 2019-C114


    MPEC number:

    Enter an MPEC number in one of the following forms:

    • 1997-B01 (the full form)
    • J97B01 (the packed version of the full form)
    • B01 (the abbreviated form)